Location: Earls Croome
(52.0667°N, 2.2000°W)
Time: 23:54:10
(UTC+00:00)

ADEOS II - Pass Details

Date: 17 November 2019
Orbit: 799 x 801 km, 98.5° (Epoch: 15 December)

Event Time Altitude Azimuth Distance (km) Brightness Sun altitude
Rises 04:25:31 0° 8° (N) 3,325 5.5 -28.3°
Reaches altitude 10° 04:28:16 10° 354° (N) 2,390 4.5 -27.9°
Enters shadow 04:28:30 11° 352° (N) 2,319 4.4 -27.8°
